OBJECT CP, 68501

Orbit data source: Space-Track

You're viewing an Uncataloged Satellite

Recently launched and/or uncataloged satellites may have evolving metadata. Metadata may include but not limited to: Owner, Maufacturer, Bus, Motor, and Mission.

OBJECT CP, 68501 is a satellite in SSO that was launched on Mon, 30 Mar 2026 UTC via an FALCON 9 launch vehicle from the Air Force Western Test Range (AFWTR). Unknown objects in Earth's orbit typically refer to objects detected orbiting the Earth but have not yet been identified or cataloged. These objects could be anything from previously untracked satellites, spent rocket stages, debris from satellite collisions, or even natural meteoroids temporarily captured by Earth's gravity.

Loading next visibility...
Identifier
68501, 2026-067CP
Orbit
SSO
Country
Flag of TBDTBD
Related business
None
Manufacturer
Unknown
Mission
Operational spacecraft
Bus & Motor
Unknown
Mass
Unknown
Launch date (UTC)
2026-03-30 (3 months ago)
Launch vehicle
FALCON 9
Launch site
Air Force Western Test Range (AFWTR)
Object type
Unknown
Shape & HBR
Unknown shape, 1.1 m
Radar Cross Section
Medium (>0.1 m² and <1 m²)

Expand to show TLE details & history
Last TLE update: 2 days ago

TLE from 2 days ago
0 OBJECT CP
1 68501U 26067CP  26171.42492910  .00001592  00000-0  16462-3 0  9998
2 68501  97.7632 129.6070 0004206  39.6644 320.4882 14.91487814 12204
Epoch: 2026-06-20T10:11Z
TLE epoch observation values (Epoch: 2026-06-20T10:11:53.874Z)
Latitude
0.00003°
Longitude
67.99278°
Altitude
594.075 km
Speed
7.564 km/s
True Right ascension
08h 38m 25s
True Declination
0° 00' 00"
Sunlit
Object was in daylight at epoch
Visualization orbit readout
Latitude
Unknown
Longitude
Unknown
Altitude
Unknown
Speed
Unknown
Apparent Right ascension
Unknown
Apparent Declination
Unknown
Sunlit
N/A
Visualization observer readout
Local Sidereal Time
15:19:33
Azimuth
Unknown
Elevation
Unknown
Doppler factor
Unknown
Orbital elements
Apogee altitude
593.246 km
Perigee altitude
587.384 km
Semi-major axis
6,968.452 km
Eccentricity
0.00042
Inclination
97.7632°
RAAN
129.607°
Arg. of periapsis
39.6644°
True anomaly
320.45752°
Mean anomaly
320.4882°
Eccentric anomaly
320.47286°
Mean motion
3.73112 °/min
Orbital period
96.49 mins
BSTAR
0.00016462
Loading maneuver chart data...
Computing Atmospheric mass density...
Loading historical data...
Loading historical data...
Loading historical data...
Loading historical data...
Loading historical data...
Loading historical data...
Loading historical data...

Documentation

Showing up to 5 results
|